This demonstration page uses our WeatherBlox Daily Observations layout. Learn more.

36.17497, -115.13722

Hourly Observations for October 31, 2020

Temp ( °F °C ) Dew Point ( °F °C ) Humidity (%) Winds ( mph kmh ) Pressure ( in mb ) Visibility ( mi km ) Precip ( " mm )
12:53 am 00:53 Clear 62 16.7 22 -5.6 21 21 WSW 7 11 30.04 1017 10 16.0934 0 0
1:53 am 01:53 Clear 59 15 21 -6.1 23 23 WNW 7 11 30.05 1018 10 16.0934 0 0
2:53 am 02:53 Clear 56 13.3 16 -8.9 21 21 W 6 9 30.06 1018 10 16.0934 0 0
3:53 am 03:53 Clear 57 13.9 18 -7.8 22 22 WNW 7 11 30.06 1018 10 16.0934 0 0
4:53 am 04:53 Clear 53 11.7 22 -5.6 30 30 NW 7 11 30.08 1019 10 16.0934 0 0
5:53 am 05:53 Clear 55 12.8 21 -6.1 26 26 NNW 6 9 30.1 1019 10 16.0934 0 0
6:53 am 06:53 Clear 54 12.2 20 -6.7 26 26 WNW 6 9 30.12 1020 10 16.0934 0 0
7:53 am 07:53 Sunny 55 12.8 25 -3.9 31 31 Calm 30.16 1021 10 16.0934 0 0
8:53 am 08:53 Sunny 64 17.8 20 -6.7 18 18 Calm 30.18 1022 10 16.0934 0 0
9:53 am 09:53 Sunny 66 18.9 22 -5.6 19 19 W 3 6 30.19 1022 10 16.0934 0 0
10:53 am 10:53 Sunny 71 21.7 21 -6.1 15 15 Calm 30.18 1022 10 16.0934 0 0
11:53 am 11:53 Sunny 75 23.9 20 -6.7 12 12 Calm 30.16 1021 10 16.0934 0 0
12:53 pm 12:53 Sunny 77 25 20 -6.7 12 12 ESE 5 7 30.14 1021 10 16.0934 0 0
1:53 pm 13:53 Sunny 79 26.1 21 -6.1 11 11 Calm 30.11 1020 10 16.0934 0 0
2:53 pm 14:53 Sunny 81 27.2 20 -6.7 10 10 S 3 6 30.1 1019 10 16.0934 0 0
3:53 pm 15:53 Sunny 81 27.2 20 -6.7 10 10 Calm 30.09 1019 10 16.0934 0 0
4:53 pm 16:53 Sunny 82 27.8 19 -7.2 9 9 Calm 30.09 1019 10 16.0934 0 0
5:53 pm 17:53 Clear 79 26.1 21 -6.1 11 11 Calm 30.09 1019 10 16.0934 0 0
6:53 pm 18:53 Clear 71 21.7 24 -4.4 17 17 Calm 30.13 1020 10 16.0934 0 0
7:53 pm 19:53 Clear 69 20.6 28 -2.2 22 22 WNW 5 7 30.14 1021 10 16.0934 0 0
8:53 pm 20:53 Clear 67 19.4 24 -4.4 20 20 W 3 6 30.14 1021 10 16.0934 0 0
9:53 pm 21:53 Clear 63 17.2 24 -4.4 23 23 NNW 5 7 30.16 1021 10 16.0934 0 0
10:53 pm 22:53 Clear 63 17.2 24 -4.4 23 23 N 3 6 30.17 1022 10 16.0934 0 0
11:53 pm 23:53 Clear 63 17.2 18 -7.8 17 17 NW 7 11 30.17 1022 10 16.0934 0 0

Powered by AerisWeather